SES-15                  
1 42709U 17026A   19265.98270418  .00000050  00000-0  00000+0 0  9994
2 42709   0.0164 257.8802 0000909 308.6994  19.6081  1.00271544  9529
FREGAT R/B              
1 42710U 17026B   19265.36288813 -.00000066  00000-0  00000+0 0  9994
2 42710   6.6922 350.6602 6235571 312.7198   9.5367  2.45432163 21040